Date String (YYYY-MM-DD hh:mm:ss) UTC,Instrument flags,Ambient pressure (hPa),Sample flow (lpm),Bypass flow (lpm),Sample temperature (°C),Ambient temperature (°C),ASC tube jacket temperature (°C),LED temperature (°C),Box temperature (°C),Sample RH (%),Span deviation,Mass concentration (μg/m³),Mass concentration (μg/m³),Mass concentration (μg/m³)
DateTimeUTC,F1_M11,P_M11,Q1_M11,Q2_M11,T1_M11,T2_M11,T3_M11,T4_M11,T5_M11,U1_M11,ZSPAN_M11,X2_M11,X0_M11,X1_M11
2023-05-03 00:00:00,,0829.0,4.99,0.00,29.9,28.3,00.0,38.4,31.4,15.9,0003.6,0007.65,0025.04,0005.92
2023-05-03 00:01:00,,0829.0,5.00,0.00,29.9,28.3,00.0,38.3,31.4,15.8,0003.7,0007.75,0023.96,0005.97
2023-05-03 00:02:00,,0829.0,5.00,0.00,29.9,28.3,00.0,38.3,31.4,15.8,0003.9,0007.84,0023.41,0006.04
2023-05-03 00:03:00,,0828.9,5.01,0.00,29.9,28.3,00.0,38.3,31.4,15.9,0003.7,0007.92,0023.08,0006.06
2023-05-03 00:04:00,,0829.0,5.00,0.00,29.8,28.3,00.0,38.3,31.4,16.1,0003.2,0008.01,0022.73,0006.09
2023-05-03 00:05:00,,0829.0,5.00,0.00,29.8,28.3,00.0,38.3,31.4,16.1,0002.9,0008.06,0021.88,0006.11
2023-05-03 00:06:00,,0828.9,5.00,0.00,29.9,28.3,00.0,38.3,31.4,16.2,0003.2,0008.04,0020.89,0006.11
2023-05-03 00:07:00,,0829.0,5.00,0.00,29.9,28.4,00.0,38.3,31.4,16.6,0003.3,0007.99,0019.97,0006.09
2023-05-03 00:08:00,,0829.0,5.00,0.00,29.9,28.4,00.0,38.3,31.4,16.6,0002.9,0007.97,0019.75,0006.05
2023-05-03 00:09:00,,0829.0,5.00,0.00,29.9,28.4,00.0,38.3,31.4,16.4,0003.2,0007.89,0019.54,0005.99
2023-05-03 00:10:00,,0829.0,5.00,0.00,29.9,28.4,00.0,38.3,31.4,16.2,0003.1,0007.79,0018.65,0005.92
2023-05-03 00:11:00,,0828.9,5.00,0.00,29.9,28.4,00.0,38.3,31.5,16.6,0002.8,0007.67,0017.93,0005.86
2023-05-03 00:12:00,,0829.0,5.00,0.00,29.9,28.4,00.0,38.3,31.5,17.2,0003.1,0007.52,0017.71,0005.78
2023-05-03 00:13:00,,0829.0,5.00,0.00,29.9,28.4,00.0,38.3,31.5,17.0,0002.3,0007.36,0017.40,0005.65
2023-05-03 00:14:00,,0828.9,5.00,0.00,29.9,28.4,00.0,38.3,31.5,16.5,0002.2,0007.27,0017.40,0005.57
2023-05-03 00:15:00,,0828.9,5.00,0.00,29.9,28.5,00.0,38.3,31.5,16.4,0002.5,0007.12,0016.55,0005.46
2023-05-03 00:16:00,,0829.0,5.00,0.00,29.9,28.5,00.0,38.3,31.5,16.1,0002.9,0006.93,0016.27,0005.30
2023-05-03 00:17:00,,0828.9,5.00,0.00,30.0,28.6,00.0,38.3,31.5,16.2,0003.0,0006.83,0016.22,0005.15
2023-05-03 00:18:00,,0828.9,5.00,0.00,30.0,28.6,00.0,38.3,31.6,16.1,0003.1,0006.74,0015.54,0005.02
2023-05-03 00:19:00,,0829.0,4.99,0.00,30.0,28.6,00.0,38.3,31.6,16.8,0003.9,0006.56,0014.85,0004.91
2023-05-03 00:20:00,,0828.9,5.00,0.00,30.0,28.6,00.0,38.4,31.6,17.3,0004.0,0006.49,0014.60,0004.81
2023-05-03 00:21:00,,0829.0,4.99,0.00,30.0,28.6,00.0,38.4,31.6,16.4,0004.2,0006.34,0014.80,0004.68
2023-05-03 00:22:00,,0828.9,5.00,0.00,30.0,28.7,00.0,38.4,31.6,17.1,0002.2,0006.32,0015.99,0004.55
2023-05-03 00:23:00,,0829.0,4.99,0.00,30.0,28.7,00.0,38.4,31.7,17.2,0000.0,0006.24,0016.46,0004.45
2023-05-03 00:24:00,,0829.0,5.00,0.00,30.1,28.7,00.0,38.4,31.7,16.6,0000.0,0006.17,0016.03,0004.35
2023-05-03 00:25:00,,0829.0,5.00,0.00,30.1,28.8,00.0,38.4,31.6,15.9,0000.0,0006.12,0015.32,0004.25
2023-05-03 00:26:00,,0829.0,5.01,0.00,30.1,28.8,00.0,38.4,31.7,15.8,0000.0,0006.04,0017.25,0004.19
2023-05-03 00:27:00,,0829.0,5.00,0.00,30.1,28.8,00.0,38.4,31.7,16.1,0000.0,0006.06,0018.10,0004.18
2023-05-03 00:28:00,,0829.0,5.00,0.00,30.1,28.9,00.0,38.5,31.7,16.3,0000.0,0006.08,0018.19,0004.18
2023-05-03 00:29:00,,0828.9,5.00,0.00,30.1,28.9,00.0,38.5,31.7,16.1,0000.0,0006.02,0017.96,0004.17
2023-05-03 00:30:00,,0829.0,5.00,0.00,30.1,28.8,00.0,38.5,31.7,16.8,0000.0,0005.97,0018.18,0004.16
2023-05-03 00:31:00,,0829.0,5.00,0.00,30.1,28.8,00.0,38.5,31.7,16.8,0000.0,0005.97,0018.37,0004.15
2023-05-03 00:32:00,,0829.0,5.00,0.00,30.1,28.8,00.0,38.5,31.7,16.5,0000.0,0005.99,0017.92,0004.19
2023-05-03 00:33:00,,0829.0,5.00,0.00,30.1,28.8,00.0,38.5,31.8,16.4,0000.0,0006.02,0016.84,0004.26
2023-05-03 00:34:00,,0829.0,5.00,0.00,30.2,28.8,00.0,38.5,31.8,16.8,0000.0,0006.07,0015.41,0004.32
2023-05-03 00:35:00,,0829.0,5.00,0.00,30.2,28.8,00.0,38.5,31.8,17.0,0000.0,0006.08,0015.58,0004.35
2023-05-03 00:36:00,,0829.0,4.99,0.00,30.2,28.8,00.0,38.5,31.8,16.8,0000.0,0006.02,0015.82,0004.35
2023-05-03 00:37:00,,0829.0,4.98,0.00,30.2,28.8,00.0,38.5,31.8,16.9,0000.0,0006.01,0013.77,0004.34
2023-05-03 00:38:00,,0828.9,5.00,0.00,30.2,28.8,00.0,38.5,31.8,17.1,0000.0,0006.02,0014.32,0004.32
2023-05-03 00:39:00,,0828.9,5.00,0.00,30.2,28.8,00.0,38.5,31.8,16.9,0000.0,0005.97,0014.94,0004.29
2023-05-03 00:40:00,,0828.9,5.01,0.00,30.2,28.7,00.0,38.5,31.7,17.2,0000.0,0006.02,0015.38,0004.26
2023-05-03 00:41:00,,0829.0,5.00,0.00,30.2,28.6,00.0,38.5,31.7,17.5,0000.0,0006.01,0015.35,0004.22
2023-05-03 00:42:00,,0829.0,5.00,0.00,30.1,28.6,00.0,38.5,31.6,17.3,0000.0,0005.95,0015.39,0004.17
2023-05-03 00:43:00,,0829.0,5.00,0.00,30.1,28.5,00.0,38.5,31.5,17.1,0000.0,0005.93,0015.53,0004.09
2023-05-03 00:44:00,,0829.0,5.00,0.00,30.1,28.5,00.0,38.5,31.5,17.4,0000.0,0005.76,0015.20,0003.99
2023-05-03 00:45:00,,0829.0,5.00,0.00,30.1,28.4,00.0,38.5,31.5,17.2,0000.0,0005.69,0015.16,0003.88
2023-05-03 00:46:00,,0828.9,5.00,0.00,30.0,28.4,00.0,38.5,31.5,17.6,0000.0,0005.59,0014.68,0003.79
2023-05-03 00:47:00,,0829.0,5.01,0.00,30.0,28.4,00.0,38.5,31.5,17.7,0000.0,0005.56,0014.32,0003.71
2023-05-03 00:48:00,,0828.9,5.01,0.00,30.0,28.4,00.0,38.5,31.5,18.2,0000.0,0005.57,0015.28,0003.66
2023-05-03 00:49:00,,0828.9,4.99,0.00,30.0,28.4,00.0,38.5,31.5,17.9,0000.0,0005.51,0014.65,0003.61
2023-05-03 00:50:00,,0829.0,5.00,0.00,30.0,28.4,00.0,38.5,31.5,17.9,0000.0,0005.42,0013.58,0003.57
2023-05-03 00:51:00,,0828.9,4.99,0.00,30.0,28.4,00.0,38.5,31.5,18.1,0000.0,0005.27,0012.91,0003.54
2023-05-03 00:52:00,,0829.0,5.00,0.00,30.0,28.4,00.0,38.5,31.5,18.4,0000.0,0005.21,0012.65,0003.50
2023-05-03 00:53:00,,0829.0,5.00,0.00,30.0,28.4,00.0,38.5,31.5,18.5,0000.0,0005.21,0012.39,0003.46
2023-05-03 00:54:00,,0828.9,5.00,0.00,30.0,28.4,00.0,38.5,31.5,18.3,0000.0,0005.16,0013.00,0003.43
2023-05-03 00:55:00,,0828.9,4.99,0.00,30.0,28.4,00.0,38.5,31.4,18.3,0000.0,0005.17,0013.80,0003.40
2023-05-03 00:56:00,,0829.0,4.99,0.00,29.9,28.3,00.0,38.4,31.4,18.4,0000.0,0005.12,0014.17,0003.39
2023-05-03 00:57:00,,0829.0,5.02,0.00,29.9,28.2,00.0,38.4,31.4,18.3,0000.0,0005.14,0014.42,0003.39
2023-05-03 00:58:00,,0828.9,5.00,0.00,29.9,28.2,00.0,38.4,31.4,18.5,0000.0,0005.10,0014.53,0003.40
2023-05-03 00:59:00,,0828.8,4.99,0.00,29.9,28.2,00.0,38.4,31.3,18.4,0000.0,0005.06,0013.98,0003.40
